Time,TemperatureF,DewpointF,PressureIn,WindDirection,WindDirectionDegrees,WindSpeedMPH,WindSpeedGustMPH,Humidity,HourlyPrecipIn,Conditions,Clouds,dailyrainin,SoftwareType,DateUTC
2013-01-31 00:00:00,55.3,54.0,29.41,WSW,243,10.0,-999.0,94,-99.99,,,0.00,weatherlink.com 1.10,2013-01-31 05:00:00,
2013-01-31 00:15:00,55.3,54.0,29.40,SW,218,9.0,-999.0,94,-99.99,,,0.00,weatherlink.com 1.10,2013-01-31 05:15:00,
2013-01-31 00:30:00,55.3,54.0,29.37,SE,135,10.0,-999.0,94,-99.99,,,0.00,weatherlink.com 1.10,2013-01-31 05:30:00,
2013-01-31 00:45:00,55.4,54.0,29.36,West,274,19.0,-999.0,94,-99.99,,,0.01,weatherlink.com 1.10,2013-01-31 05:45:00,
2013-01-31 01:00:00,55.4,54.0,29.34,SSW,211,12.0,-999.0,94,-99.99,,,0.06,weatherlink.com 1.10,2013-01-31 06:00:00,
2013-01-31 01:15:00,55.5,54.0,29.32,SW,233,7.0,-999.0,94,-99.99,,,0.13,weatherlink.com 1.10,2013-01-31 06:15:00,
2013-01-31 01:30:00,55.7,54.0,29.31,SW,226,3.0,-999.0,94,-99.99,,,0.16,weatherlink.com 1.10,2013-01-31 06:30:00,
2013-01-31 01:45:00,55.5,54.0,29.30,SSW,212,13.0,-999.0,94,-99.99,,,0.21,weatherlink.com 1.10,2013-01-31 06:45:00,
2013-01-31 02:00:00,55.3,54.0,29.27,SSW,195,21.0,-999.0,94,-99.99,,,0.23,weatherlink.com 1.10,2013-01-31 07:00:00,
2013-01-31 02:15:00,55.1,54.0,29.26,SSW,212,8.0,-999.0,94,-99.99,,,0.26,weatherlink.com 1.10,2013-01-31 07:15:00,
2013-01-31 02:30:00,55.4,54.0,29.23,SSW,195,6.0,-999.0,94,-99.99,,,0.28,weatherlink.com 1.10,2013-01-31 07:30:00,
2013-01-31 02:45:00,55.4,54.0,29.21,SSE,164,8.0,-999.0,94,-99.99,,,0.31,weatherlink.com 1.10,2013-01-31 07:45:00,
2013-01-31 03:00:00,55.8,54.0,29.18,South,190,13.0,-999.0,94,-99.99,,,0.34,weatherlink.com 1.10,2013-01-31 08:00:00,
2013-01-31 03:15:00,56.6,55.0,29.16,SW,227,12.0,-999.0,94,-99.99,,,0.38,weatherlink.com 1.10,2013-01-31 08:15:00,
2013-01-31 03:30:00,57.2,56.0,29.13,SSW,212,16.0,-999.0,94,-99.99,,,0.41,weatherlink.com 1.10,2013-01-31 08:30:00,
2013-01-31 03:45:00,57.7,56.0,29.11,SW,220,13.0,-999.0,94,-99.99,,,0.43,weatherlink.com 1.10,2013-01-31 08:45:00,
2013-01-31 04:00:00,57.6,56.0,29.08,SSW,208,11.0,-999.0,94,-99.99,,,0.53,weatherlink.com 1.10,2013-01-31 09:00:00,
2013-01-31 04:15:00,57.6,56.0,29.06,SW,218,8.0,-999.0,94,-99.99,,,0.67,weatherlink.com 1.10,2013-01-31 09:15:00,
2013-01-31 04:30:00,57.9,56.0,29.04,SSW,198,14.0,-999.0,94,-99.99,,,0.86,weatherlink.com 1.10,2013-01-31 09:30:00,
2013-01-31 04:45:00,58.2,57.0,29.05,SSW,205,15.0,-999.0,94,-99.99,,,1.05,weatherlink.com 1.10,2013-01-31 09:45:00,
2013-01-31 05:01:00,58.4,57.0,29.09,SSW,197,11.0,-999.0,94,-99.99,,,1.16,weatherlink.com 1.10,2013-01-31 10:01:00,
2013-01-31 05:15:00,57.7,56.0,29.08,WSW,241,13.0,-999.0,93,-99.99,,,1.17,weatherlink.com 1.10,2013-01-31 10:15:00,
2013-01-31 05:31:00,56.9,55.0,29.09,SSW,206,5.0,-999.0,92,-99.99,,,1.18,weatherlink.com 1.10,2013-01-31 10:31:00,
2013-01-31 05:46:00,56.3,54.0,29.09,SSW,210,8.0,-999.0,92,-99.99,,,1.23,weatherlink.com 1.10,2013-01-31 10:46:00,
2013-01-31 06:00:00,55.6,54.0,29.06,South,179,0.0,-999.0,93,-99.99,,,1.26,weatherlink.com 1.10,2013-01-31 11:00:00,
2013-01-31 06:15:00,55.1,53.0,29.04,WSW,245,1.0,-999.0,93,-99.99,,,1.26,weatherlink.com 1.10,2013-01-31 11:15:00,
2013-01-31 06:31:00,54.6,53.0,29.04,SSW,211,2.0,-999.0,93,-99.99,,,1.26,weatherlink.com 1.10,2013-01-31 11:31:00,
2013-01-31 06:45:00,54.3,52.0,29.03,South,184,2.0,-999.0,93,-99.99,,,1.26,weatherlink.com 1.10,2013-01-31 11:45:00,
2013-01-31 07:01:00,54.0,52.0,29.02,SW,217,5.0,-999.0,93,-99.99,,,1.26,weatherlink.com 1.10,2013-01-31 12:01:00,
2013-01-31 07:15:00,53.8,52.0,29.03,SW,226,11.0,-999.0,93,-99.99,,,1.26,weatherlink.com 1.10,2013-01-31 12:15:00,
2013-01-31 07:31:00,53.5,52.0,29.02,SW,231,5.0,-999.0,93,-99.99,,,1.26,weatherlink.com 1.10,2013-01-31 12:31:00,
2013-01-31 07:45:00,53.2,51.0,29.03,SW,216,14.0,-999.0,93,-99.99,,,1.32,weatherlink.com 1.10,2013-01-31 12:45:00,
2013-01-31 08:00:00,49.9,47.0,29.08,WSW,248,4.0,-999.0,88,-99.99,,,1.33,weatherlink.com 1.10,2013-01-31 13:00:00,
2013-01-31 08:15:00,48.6,45.0,29.10,West,280,5.0,-999.0,86,-99.99,,,1.33,weatherlink.com 1.10,2013-01-31 13:15:00,
2013-01-31 08:30:00,47.6,44.0,29.12,NNW,348,16.0,-999.0,86,-99.99,,,1.33,weatherlink.com 1.10,2013-01-31 13:30:00,
2013-01-31 08:45:00,46.1,40.0,29.12,NNW,343,8.0,-999.0,80,-99.99,,,1.33,weatherlink.com 1.10,2013-01-31 13:45:00,
2013-01-31 09:00:00,46.2,40.0,29.14,SW,217,0.0,-999.0,78,-99.99,,,1.33,weatherlink.com 1.10,2013-01-31 14:00:00,
2013-01-31 09:16:00,46.1,39.0,29.15,NW,325,6.0,-999.0,75,-99.99,,,1.33,weatherlink.com 1.10,2013-01-31 14:16:00,
2013-01-31 09:30:00,45.7,37.0,29.18,West,269,1.0,-999.0,73,-99.99,,,1.33,weatherlink.com 1.10,2013-01-31 14:30:00,
2013-01-31 09:46:00,45.8,36.0,29.19,West,272,6.0,-999.0,69,-99.99,,,1.33,weatherlink.com 1.10,2013-01-31 14:46:00,
2013-01-31 10:01:00,44.7,33.0,29.21,NW,321,6.0,-999.0,65,-99.99,,,1.33,weatherlink.com 1.10,2013-01-31 15:01:00,
2013-01-31 10:15:00,44.5,33.0,29.23,NW,318,15.0,-999.0,65,-99.99,,,1.33,weatherlink.com 1.10,2013-01-31 15:15:00,
2013-01-31 10:30:00,45.2,30.0,29.24,NNE,18,7.0,-999.0,56,-99.99,,,1.33,weatherlink.com 1.10,2013-01-31 15:30:00,
2013-01-31 10:46:00,45.0,29.0,29.25,North,359,11.0,-999.0,54,-99.99,,,1.33,weatherlink.com 1.10,2013-01-31 15:46:00,
2013-01-31 11:00:00,45.1,28.0,29.26,SW,226,8.0,-999.0,52,-99.99,,,1.33,weatherlink.com 1.10,2013-01-31 16:00:00,
2013-01-31 11:15:00,44.4,29.0,29.27,NW,317,5.0,-999.0,55,-99.99,,,1.33,weatherlink.com 1.10,2013-01-31 16:15:00,
2013-01-31 11:30:00,42.8,29.0,29.28,NW,320,13.0,-999.0,58,-99.99,,,1.33,weatherlink.com 1.10,2013-01-31 16:30:00,
2013-01-31 11:46:00,41.4,27.0,29.29,ENE,68,2.0,-999.0,58,-99.99,,,1.33,weatherlink.com 1.10,2013-01-31 16:46:00,
2013-01-31 12:00:00,41.7,28.0,29.30,West,265,4.0,-999.0,59,-99.99,,,1.33,weatherlink.com 1.10,2013-01-31 17:00:00,
2013-01-31 12:16:00,43.7,28.0,29.30,NW,324,7.0,-999.0,54,-99.99,,,1.33,weatherlink.com 1.10,2013-01-31 17:16:00,
2013-01-31 12:31:00,43.7,25.0,29.32,SSW,204,13.0,-999.0,49,-99.99,,,1.33,weatherlink.com 1.10,2013-01-31 17:31:00,
2013-01-31 12:46:00,43.5,23.0,29.32,West,280,7.0,-999.0,45,-99.99,,,1.33,weatherlink.com 1.10,2013-01-31 17:46:00,
2013-01-31 13:00:00,43.7,23.0,29.33,West,280,16.0,-999.0,45,-99.99,,,1.33,weatherlink.com 1.10,2013-01-31 18:00:00,
2013-01-31 13:15:00,42.7,22.0,29.33,North,11,7.0,-999.0,44,-99.99,,,1.33,weatherlink.com 1.10,2013-01-31 18:15:00,
2013-01-31 13:30:00,42.6,21.0,29.34,WSW,241,4.0,-999.0,43,-99.99,,,1.33,weatherlink.com 1.10,2013-01-31 18:30:00,
2013-01-31 13:46:00,41.5,20.0,29.35,NNW,339,10.0,-999.0,42,-99.99,,,1.33,weatherlink.com 1.10,2013-01-31 18:46:00,
2013-01-31 14:00:00,42.4,21.0,29.35,WNW,289,10.0,-999.0,42,-99.99,,,1.33,weatherlink.com 1.10,2013-01-31 19:00:00,
2013-01-31 14:16:00,41.7,19.0,29.36,NNW,330,5.0,-999.0,41,-99.99,,,1.33,weatherlink.com 1.10,2013-01-31 19:16:00,
2013-01-31 14:30:00,40.4,19.0,29.37,SW,231,4.0,-999.0,42,-99.99,,,1.33,weatherlink.com 1.10,2013-01-31 19:30:00,
2013-01-31 14:45:00,40.0,18.0,29.38,WNW,291,8.0,-999.0,41,-99.99,,,1.33,weatherlink.com 1.10,2013-01-31 19:45:00,
2013-01-31 15:00:00,40.2,19.0,29.40,South,177,7.0,-999.0,42,-99.99,,,1.33,weatherlink.com 1.10,2013-01-31 20:00:00,
2013-01-31 15:15:00,40.4,19.0,29.41,NNE,13,4.0,-999.0,42,-99.99,,,1.33,weatherlink.com 1.10,2013-01-31 20:15:00,
2013-01-31 15:31:00,39.9,18.0,29.40,West,275,0.0,-999.0,42,-99.99,,,1.33,weatherlink.com 1.10,2013-01-31 20:31:00,
2013-01-31 15:45:00,39.4,18.0,29.41,SW,223,2.0,-999.0,43,-99.99,,,1.33,weatherlink.com 1.10,2013-01-31 20:45:00,
2013-01-31 16:01:00,39.4,17.0,29.42,North,349,8.0,-999.0,41,-99.99,,,1.33,weatherlink.com 1.10,2013-01-31 21:01:00,
2013-01-31 16:15:00,38.9,16.0,29.43,NW,316,0.0,-999.0,39,-99.99,,,1.33,weatherlink.com 1.10,2013-01-31 21:15:00,
2013-01-31 16:30:00,38.0,16.0,29.44,NNE,18,9.0,-999.0,40,-99.99,,,1.33,weatherlink.com 1.10,2013-01-31 21:30:00,
2013-01-31 16:46:00,37.5,15.0,29.46,NNW,345,6.0,-999.0,40,-99.99,,,1.33,weatherlink.com 1.10,2013-01-31 21:46:00,
2013-01-31 17:01:00,37.0,16.0,29.46,WNW,288,8.0,-999.0,43,-99.99,,,1.33,weatherlink.com 1.10,2013-01-31 22:01:00,
2013-01-31 17:15:00,36.1,17.0,29.48,West,262,20.0,-999.0,47,-99.99,,,1.33,weatherlink.com 1.10,2013-01-31 22:15:00,
2013-01-31 17:30:00,35.1,18.0,29.49,WSW,247,2.0,-999.0,49,-99.99,,,1.33,weatherlink.com 1.10,2013-01-31 22:30:00,
2013-01-31 17:46:00,34.4,17.0,29.51,WNW,298,9.0,-999.0,50,-99.99,,,1.33,weatherlink.com 1.10,2013-01-31 22:46:00,
2013-01-31 18:00:00,33.8,19.0,29.53,SW,220,9.0,-999.0,54,-99.99,,,1.33,weatherlink.com 1.10,2013-01-31 23:00:00,
2013-01-31 18:16:00,33.3,19.0,29.54,SSW,205,6.0,-999.0,55,-99.99,,,1.33,weatherlink.com 1.10,2013-01-31 23:16:00,
2013-01-31 18:30:00,32.9,19.0,29.55,WNW,297,2.0,-999.0,58,-99.99,,,1.33,weatherlink.com 1.10,2013-01-31 23:30:00,
2013-01-31 18:46:00,32.3,19.0,29.56,NNW,341,2.0,-999.0,59,-99.99,,,1.33,weatherlink.com 1.10,2013-01-31 23:46:00,
2013-01-31 19:00:00,31.9,18.0,29.58,SW,218,11.0,-999.0,58,-99.99,,,1.33,weatherlink.com 1.10,2013-02-01 00:00:00,
2013-01-31 19:16:00,31.5,19.0,29.59,WNW,299,11.0,-999.0,59,-99.99,,,1.33,weatherlink.com 1.10,2013-02-01 00:16:00,
2013-01-31 19:30:00,31.0,18.0,29.60,WNW,295,7.0,-999.0,59,-99.99,,,1.33,weatherlink.com 1.10,2013-02-01 00:30:00,
2013-01-31 19:45:00,30.4,18.0,29.60,WNW,283,5.0,-999.0,61,-99.99,,,1.33,weatherlink.com 1.10,2013-02-01 00:45:00,
2013-01-31 20:01:00,30.0,18.0,29.61,NW,307,0.0,-999.0,62,-99.99,,,1.33,weatherlink.com 1.10,2013-02-01 01:01:00,
2013-01-31 20:15:00,29.9,15.0,29.61,NW,310,6.0,-999.0,55,-99.99,,,1.33,weatherlink.com 1.10,2013-02-01 01:15:00,
2013-01-31 20:30:00,29.8,13.0,29.61,WSW,237,7.0,-999.0,50,-99.99,,,1.33,weatherlink.com 1.10,2013-02-01 01:30:00,
2013-01-31 20:45:00,29.6,12.0,29.62,SW,236,1.0,-999.0,49,-99.99,,,1.33,weatherlink.com 1.10,2013-02-01 01:45:00,
2013-01-31 21:00:00,29.3,12.0,29.63,WSW,239,6.0,-999.0,49,-99.99,,,1.33,weatherlink.com 1.10,2013-02-01 02:00:00,
2013-01-31 21:15:00,29.3,12.0,29.63,NNW,347,5.0,-999.0,49,-99.99,,,1.33,weatherlink.com 1.10,2013-02-01 02:15:00,
2013-01-31 21:30:00,29.1,12.0,29.64,NNW,327,6.0,-999.0,49,-99.99,,,1.33,weatherlink.com 1.10,2013-02-01 02:30:00,
2013-01-31 21:45:00,28.8,12.0,29.64,South,191,6.0,-999.0,50,-99.99,,,1.33,weatherlink.com 1.10,2013-02-01 02:45:00,
2013-01-31 22:00:00,28.6,12.0,29.65,WSW,239,8.0,-999.0,50,-99.99,,,1.33,weatherlink.com 1.10,2013-02-01 03:00:00,
2013-01-31 22:16:00,28.4,12.0,29.64,WSW,241,4.0,-999.0,51,-99.99,,,1.33,weatherlink.com 1.10,2013-02-01 03:16:00,
2013-01-31 22:31:00,28.1,13.0,29.64,WNW,287,2.0,-999.0,53,-99.99,,,1.33,weatherlink.com 1.10,2013-02-01 03:31:00,
2013-01-31 22:45:00,28.0,14.0,29.65,West,273,0.0,-999.0,55,-99.99,,,1.33,weatherlink.com 1.10,2013-02-01 03:45:00,
2013-01-31 23:15:00,28.0,16.0,29.65,NW,310,4.0,-999.0,60,-99.99,,,1.33,weatherlink.com 1.10,2013-02-01 04:15:00,
2013-01-31 23:31:00,27.8,16.0,29.67,WNW,294,5.0,-999.0,62,-99.99,,,1.33,weatherlink.com 1.10,2013-02-01 04:31:00,
2013-01-31 23:45:00,27.4,13.0,29.67,West,278,5.0,-999.0,56,-99.99,,,1.33,weatherlink.com 1.10,2013-02-01 04:45:00,